Home > Time Zones > World Clock > Weather > Italy > Monza > Past weeks

Flag for Italy Weather past 2 weeks in Monza, Italy

Now
81 °F

Scattered clouds.


Feels Like: 82 °F
Forecast: 63 / 73 °F
Wind: 5 mph from South

Location: Milan / Linate

Current Time: Jul 25, 2014 at 6:27:00 PM

Latest Report: Jul 25, 2014 at 5:50 PM


Visibility: N/A

Pressure: 29.89 "Hg

Humidity: 58%

Dew point: 64 °F

Location of MonzaLocation

Historic Weather in Monza — Graph

°F

Monza temperature yesterday

Maximum temperature yesterday: 73 °F (at 5:50 PM)
Minimum temperature yesterday: 66 °F (at 4:50 AM)
Average temperature yesterday: 69 °F

Past Weeks' High & Low Weather Summary

 TemperatureHumidityPressure
High90 °F (Jul 17, 5:20 PM)100% (Jul 13, 12:50 AM)30.12 "Hg (Jul 13, 12:50 AM)
Low59 °F (Jul 11, 6:20 AM)36% (Jul 10, 6:20 PM)29.68 "Hg (Jul 10, 4:20 PM)
Average74 °F72%29.92 "Hg
* Reported Jul 10 4:20 PM — Jul 25 4:50 PM, Monza, Weather by CustomWeather, © 2014

Note: Actual official high and low records may vary slightly from our data, if they occured in-between our weather recording intervals... More about our weather records

Advertising

Monza weather history for previous 24 hours

 ConditionsComfort  
Time TempWeatherWind HumidityBarometerVisibility
4:50 PM
Jul 25
81 °FPassing clouds.5 mph54%29.89 "HgN/A
4:20 PM81 °FScattered clouds.5 mph58%29.89 "HgN/A
3:50 PM81 °FScattered clouds.6 mph58%29.89 "HgN/A
3:20 PM81 °FScattered clouds.6 mph54%29.89 "HgN/A
2:50 PM81 °FScattered clouds.3 mph58%29.92 "HgN/A
2:20 PM81 °FPartly sunny.5 mph58%29.92 "HgN/A
1:50 PM81 °FPartly sunny.3 mph58%29.92 "HgN/A
1:20 PM79 °FPartly sunny.3 mph61%29.92 "HgN/A
12:50 PM77 °FPartly sunny.5 mph65%29.92 "HgN/A
12:20 PM79 °FPartly sunny.3 mph61%29.95 "HgN/A
11:50 AM77 °FPartly sunny.3 mph65%29.95 "HgN/A
11:20 AM77 °FPartly sunny.3 mph65%29.95 "HgN/A
10:50 AM73 °FScattered clouds.3 mph74%29.95 "HgN/A
10:20 AM73 °FScattered clouds.2 mph69%29.95 "HgN/A
9:50 AM73 °FScattered clouds.2 mph78%29.95 "Hg5 mi
9:20 AM72 °FScattered clouds.3 mph78%29.95 "HgN/A
8:50 AM70 °FPassing clouds.3 mph83%29.95 "HgN/A
8:20 AM70 °FPassing clouds.3 mph83%29.95 "HgN/A
7:50 AM70 °FSunny.2 mph88%29.92 "Hg10 mi
7:20 AM68 °FFog.2 mph94%29.92 "HgN/A
6:50 AM64 °FFog.1 mph100%29.92 "HgN/A
6:20 AM64 °FFog.1 mph100%29.89 "HgN/A
5:50 AM64 °FFog.1 mph100%29.89 "Hg3 mi
5:20 AM64 °FPassing clouds.1 mph100%29.89 "HgN/A
4:50 AM66 °FPassing clouds.2 mph100%29.89 "HgN/A
4:20 AM66 °FPassing clouds.2 mph100%29.89 "HgN/A
3:50 AM66 °FPassing clouds.2 mph100%29.89 "HgN/A
3:20 AM66 °FPassing clouds.1 mph100%29.89 "HgN/A
2:50 AM68 °FPassing clouds.1 mph94%29.89 "HgN/A
2:20 AM68 °FLight rain. Passing clouds.No wind94%29.92 "HgN/A
1:50 AM68 °FPassing clouds.1 mph88%29.92 "HgN/A
1:20 AM68 °FPassing clouds.3 mph88%29.92 "HgN/A
12:50 AM68 °FPassing clouds.2 mph88%29.92 "HgN/A
12:20 AM68 °FPassing clouds.3 mph88%29.92 "HgN/A
11:50 PM
Jul 24
68 °FPassing clouds.2 mph88%29.92 "HgN/A
11:20 PM68 °FPassing clouds.3 mph88%29.92 "HgN/A
10:50 PM68 °FPassing clouds.2 mph88%29.92 "HgN/A
10:20 PM68 °FPassing clouds.1 mph88%29.92 "HgN/A
9:50 PM70 °FSunny.2 mph78%29.92 "Hg10 mi
9:20 PM70 °FPassing clouds.3 mph78%29.89 "HgN/A
8:50 PM70 °FPassing clouds.5 mph78%29.89 "HgN/A
8:20 PM70 °FPassing clouds.5 mph78%29.89 "HgN/A
7:50 PM72 °FPassing clouds.5 mph78%29.89 "HgN/A
7:20 PM72 °FPassing clouds.7 mph73%29.86 "HgN/A
6:50 PM73 °FPassing clouds.6 mph69%29.86 "HgN/A
6:20 PM73 °FPassing clouds.7 mph69%29.86 "HgN/A
Weather by CustomWeather, © 2014

See weather overviewHow to use our weather pages